DM23 KEWR-KEWR

Flight info

Callsign DM23
Flight time 0h 7m
Altitude 4000
Route KEWR KEWR
Aircraft B58T/L-SDE2E3GHIJ1J3J4J5LM1ORWXYZ/LB1D1

Departure

Time 2026-04-20 22:29
Airport Newark Liberty International Airport (KEWR)

Arrival

Time 2026-04-20 22:36
Airport Newark Liberty International Airport (KEWR)
Time Latitude Longitude Altitude Speed Heading
2026-04-20 22:21 40.70462 -74.16556 11 ft 0 kts 94°
2026-04-20 22:25 40.70461 -74.16553 11 ft 2 kts 127°
2026-04-20 22:25 40.70415 -74.16571 11 ft 10 kts 202°
2026-04-20 22:25 40.70383 -74.16589 11 ft 2 kts 205°
2026-04-20 22:26 40.70343 -74.16615 11 ft 8 kts 207°
2026-04-20 22:26 40.70299 -74.16682 11 ft 13 kts 245°
2026-04-20 22:26 40.70303 -74.16744 11 ft 3 kts 276°
2026-04-20 22:27 40.70309 -74.16858 11 ft 5 kts 279°
2026-04-20 22:27 40.70318 -74.16947 11 ft 13 kts 275°
2026-04-20 22:27 40.70325 -74.17023 11 ft 5 kts 278°
2026-04-20 22:27 40.70330 -74.17097 11 ft 12 kts 279°
2026-04-20 22:28 40.70338 -74.17218 11 ft 14 kts 270°
2026-04-20 22:28 40.70329 -74.17332 11 ft 9 kts 218°
2026-04-20 22:28 40.70251 -74.17341 11 ft 8 kts 153°
2026-04-20 22:28 40.70226 -74.17210 11 ft 31 kts 95°
2026-04-20 22:29 40.70194 -74.16568 19 ft 100 kts 88°
2026-04-20 22:29 40.70123 -74.15524 138 ft 128 kts 92°
2026-04-20 22:29 40.69967 -74.14331 300 ft 141 kts 92°
2026-04-20 22:29 40.69801 -74.13077 712 ft 121 kts 92°
2026-04-20 22:30 40.69716 -74.12107 1250 ft 100 kts 85°
2026-04-20 22:30 40.69727 -74.11031 1203 ft 137 kts 82°
2026-04-20 22:30 40.69775 -74.09699 1111 ft 159 kts 83°
2026-04-20 22:30 40.69828 -74.08179 978 ft 168 kts 83°
2026-04-20 22:31 40.69794 -74.06598 811 ft 176 kts 98°
2026-04-20 22:31 40.69093 -74.05262 497 ft 185 kts 137°
2026-04-20 22:31 40.68239 -74.04056 240 ft 187 kts 117°
2026-04-20 22:31 40.67734 -74.02537 131 ft 170 kts 91°
2026-04-20 22:32 40.68145 -74.01165 256 ft 163 kts 36°
2026-04-20 22:32 40.69229 -74.01000 131 ft 162 kts 350°
2026-04-20 22:32 40.70253 -74.00717 302 ft 155 kts 37°
2026-04-20 22:32 40.71000 -73.99661 343 ft 155 kts 49°
2026-04-20 22:33 40.71764 -73.98731 390 ft 144 kts
2026-04-20 22:33 40.72731 -73.99168 222 ft 155 kts 330°
2026-04-20 22:33 40.73095 -74.00388 219 ft 161 kts 259°
2026-04-20 22:33 40.72644 -74.01769 110 ft 169 kts 246°
2026-04-20 22:34 40.72202 -74.03200 72 ft 171 kts 269°
2026-04-20 22:34 40.72023 -74.04723 219 ft 171 kts 252°
2026-04-20 22:34 40.71513 -74.06136 327 ft 172 kts 245°
2026-04-20 22:34 40.70890 -74.07519 364 ft 177 kts 240°
2026-04-20 22:35 40.70221 -74.08910 346 ft 180 kts 243°
2026-04-20 22:35 40.69603 -74.10365 253 ft 184 kts 252°
2026-04-20 22:35 40.69286 -74.11987 217 ft 177 kts 264°
2026-04-20 22:35 40.69130 -74.13388 334 ft 127 kts 264°
2026-04-20 22:36 40.69271 -74.14313 212 ft 101 kts 314°
2026-04-20 22:36 40.69752 -74.14886 92 ft 91 kts 318°
2026-04-20 22:36 40.70080 -74.15592 31 ft 95 kts 295°
2026-04-20 22:36 40.70207 -74.16209 11 ft 35 kts 295°
2026-04-20 22:37 40.70220 -74.16244 11 ft 0 kts 299°
2026-04-20 22:37 40.70675 -74.24071 843 ft 90 kts 88°
2026-04-20 22:37 40.70462 -74.23275 910 ft 85 kts 109°
2026-04-20 22:38 40.70235 -74.22559 867 ft 88 kts 101°
2026-04-20 22:38 40.70072 -74.21662 726 ft 117 kts 98°
2026-04-20 22:38 40.69888 -74.20497 527 ft 141 kts 97°
2026-04-20 22:38 40.69687 -74.19191 325 ft 151 kts 98°
2026-04-20 22:39 40.69498 -74.17937 208 ft 150 kts 96°
2026-04-20 22:39 40.69268 -74.16627 196 ft 143 kts 99°
2026-04-20 22:39 40.69201 -74.16190 200 ft 142 kts 97°
2026-04-20 22:39 40.69106 -74.15551 209 ft 136 kts 98°
2026-04-20 22:40 40.68988 -74.14336 208 ft 130 kts 96°
2026-04-20 22:40 40.68953 -74.13154 208 ft 127 kts 91°
2026-04-20 22:40 40.68934 -74.11999 209 ft 126 kts 91°
2026-04-20 22:40 40.68916 -74.10838 209 ft 126 kts 91°
2026-04-20 22:41 40.68898 -74.09686 209 ft 126 kts 91°
2026-04-20 22:41 40.68879 -74.08528 209 ft 126 kts 91°
2026-04-20 22:41 40.68858 -74.07387 205 ft 126 kts 90°
2026-04-20 22:41 40.68841 -74.06199 164 ft 128 kts 91°
2026-04-20 22:42 40.68818 -74.05042 169 ft 126 kts 89°
2026-04-20 22:42 40.68899 -74.03925 155 ft 121 kts 59°
2026-04-20 22:42 40.69252 -74.02953 163 ft 116 kts 52°
2026-04-20 22:42 40.69865 -74.02294 169 ft 113 kts 37°
2026-04-20 22:43 40.70513 -74.01708 169 ft 112 kts 26°
2026-04-20 22:43 40.71200 -74.01235 169 ft 111 kts 34°
2026-04-20 22:43 40.71896 -74.00802 173 ft 110 kts 33°
2026-04-20 22:43 40.71966 -74.00014 203 ft 106 kts 148°
2026-04-20 22:44 40.71328 -74.00344 164 ft 109 kts 215°
2026-04-20 22:44 40.70677 -74.00786 256 ft 103 kts 207°
2026-04-20 22:44 40.70059 -74.01393 155 ft 111 kts 213°
2026-04-20 22:44 40.69459 -74.02026 165 ft 110 kts 232°
2026-04-20 22:45 40.69109 -74.02930 170 ft 110 kts 247°
2026-04-20 22:45 40.68899 -74.03906 129 ft 113 kts 265°
2026-04-20 22:45 40.68874 -74.04351 146 ft 111 kts 273°
2026-04-20 22:45 40.68998 -74.04732 328 ft 90 kts 335°
2026-04-20 22:46 40.69469 -74.04201 209 ft 107 kts 66°
2026-04-20 22:46 40.69692 -74.03249 173 ft 111 kts 88°
2026-04-20 22:46 40.69591 -74.02235 168 ft 111 kts 94°
2026-04-20 22:46 40.69792 -74.01262 170 ft 110 kts 72°
2026-04-20 22:47 40.70139 -74.00355 170 ft 111 kts 58°
2026-04-20 22:47 40.70562 -73.99477 98 ft 115 kts 59°
2026-04-20 22:47 40.70923 -73.98718 519 ft 67 kts 52°
2026-04-20 22:47 40.71422 -73.98418 328 ft 104 kts 24°
2026-04-20 22:48 40.72179 -73.98414 189 ft 115 kts 336°
2026-04-20 22:48 40.72965 -73.98592 174 ft 114 kts 351°
2026-04-20 22:48 40.73748 -73.98618 207 ft 110 kts
2026-04-20 22:48 40.74483 -73.98522 270 ft 106 kts
2026-04-20 22:49 40.74665 -73.98505 250 ft 108 kts
2026-04-20 22:49 40.74957 -73.98457 138 ft 117 kts 17°
2026-04-20 22:49 40.75714 -73.98389 79 ft 129 kts 349°
2026-04-20 22:49 40.75968 -73.98508 63 ft 11 kts 151°
2026-04-20 22:50 40.75966 -73.98505 48 ft 0 kts 181°